TITAN 3C TRANSTAGE DEB, 1833

Orbit data source: Space-Track

TITAN 3C TRANSTAGE DEB, 1833 is space debris in LEO originally from a launch on Fri, 15 Oct 1965 UTC launched from the Air Force Eastern Test Range (AFETR). Debris objects in space refer to the collection of defunct objects orbiting the Earth. Examples of debris include non-operational satellites, rocket bodies, and fragments generated from explosions, collisions, or faulty payload assembly.

Loading next visibility...
Identifier
1833, 1965-082DY
Orbit
LEO
Country
Flag of USUS
Related business
Manufacturer
Unknown
Mission
Spacecraft
Bus & Motor
Unknown
Mass
Unknown
Launch date (UTC)
1965-10-15 (60 years ago)
Launch vehicle
Unknown
Launch site
Air Force Eastern Test Range (AFETR)
Object type
Payload
Rocket body
Debris
Shape & HBR
Unknown shape, 0.2 m
Radar Cross Section
Medium (>0.1 m² and <1 m²)

Expand to show TLE details & history
Last TLE update: 17 hours ago

TLE from 17 hours ago
0 TITAN 3C TRANSTAGE DEB
1  1833U 65082DY  25307.88433350  .00004737  00000-0  70735-3 0  9993
2  1833  32.2259 118.7053 0060599 229.4604 130.0757 14.72374347136691
Epoch: 2025-11-03T21:13Z
TLE epoch observation values (Epoch: 2025-11-03T21:13:26.414Z)
Latitude
-0.00002°
Longitude
116.9659°
Altitude
679.728 km
Speed
7.504 km/s
True Right ascension
07h 54m 49s
True Declination
0° 00' 00"
Sunlit
Object was in daylight at epoch
Visualization orbit readout
Latitude
Unknown
Longitude
Unknown
Altitude
Unknown
Speed
Unknown
Apparent Right ascension
Unknown
Apparent Declination
Unknown
Sunlit
N/A
Visualization observer readout
Local Sidereal Time
10:02:09
Azimuth
Unknown
Elevation
Unknown
Doppler factor
Unknown
Orbital elements
Apogee altitude
699.729 km
Perigee altitude
614.463 km
Semi-major axis
7,035.233 km
Eccentricity
0.00606
Inclination
32.2259°
RAAN
118.7053°
Arg. of periapsis
229.4604°
True anomaly
130.60447°
Mean anomaly
130.0757°
Eccentric anomaly
130.34035°
Mean motion
3.67812 °/min
Orbital period
97.88 mins
BSTAR
0.00070735

Documentation

Showing up to 5 results
|